Location: Lobstick
(53.6000°N, 115.1667°W)
Time: 09:02:42
(UTC+00:00)

NOAA 19 - Visible Passes

Search period start: 08 December 2023 00:00
Search period end: 18 December 2023 00:00
Orbit: 839 x 860 km, 99.1° (Epoch: 08 December)

Date Brightness Start Highest point End Pass type
(mag) Time Alt. Az. Time Alt. Az. Time Alt. Az.
08 Dec 7.3 01:22:59 10° NNE 01:22:59 10° NNE 01:23:10 10° NNE visible
08 Dec 7.4 03:04:58 14° N 03:04:58 14° N 03:05:48 10° N visible
09 Dec 7.3 02:52:39 14° N 02:52:39 14° N 02:53:30 10° N visible
10 Dec 7.3 02:40:21 14° N 02:40:21 14° N 02:41:12 10° N visible
11 Dec 7.3 02:28:02 14° N 02:28:02 14° N 02:28:52 10° N visible
11 Dec 7.9 04:10:00 10° NNW 04:10:00 10° NNW 04:10:06 10° NNW visible
12 Dec 7.2 02:15:43 13° N 02:15:43 13° N 02:16:30 10° N visible
12 Dec 7.8 03:57:41 11° NNW 03:57:41 11° NNW 03:57:55 10° NNW visible
13 Dec 7.2 02:03:23 13° NNE 02:03:23 13° NNE 02:04:07 10° N visible
13 Dec 7.7 03:45:22 12° NNW 03:45:22 12° NNW 03:45:44 10° NNW visible
14 Dec 7.2 01:51:04 12° NNE 01:51:04 12° NNE 01:51:40 10° N visible
14 Dec 7.6 03:33:02 13° NNW 03:33:02 13° NNW 03:33:31 10° NNW visible
15 Dec 7.3 01:38:44 11° NNE 01:38:44 11° NNE 01:39:08 10° NNE visible
15 Dec 7.5 03:20:43 13° N 03:20:43 13° N 03:21:16 10° N visible
16 Dec 7.3 01:26:24 10° NNE 01:26:24 10° NNE 01:26:28 10° NNE visible
16 Dec 7.5 03:08:23 13° N 03:08:23 13° N 03:09:00 10° N visible
17 Dec 7.4 02:56:02 13° N 02:56:02 13° N 02:56:43 10° N visible
